Regional Weather Roundup
Issued by NWS

Home | Current Version | Previous Version | Text Only | Print | Product List | Glossary On
Versions: 1 2 3 4 5 6 7 8 9 10 11 12 13 14 15 16 17 18 19 20 21 22 23 24 25 26 27 28 29 30 31 32 33 34 35 36 37 38 39 40 41 42 43 44 45 46 47 48 49 50
000
ASHW40 PHFO 281810
RWRHI

WEATHER ROUNDUP FOR HAWAII
NATIONAL WEATHER SERVICE HONOLULU HI
800 AM HST WED JAN 28 2015

THIS IS AN AUTOMATED REPORT THAT HAS NOT BEEN QUALITY CONTROLLED.

NOTE..."FAIR" INDICATES FEW OR NO CLOUDS BELOW 12,000 FEET WITH NO
SIGNIFICANT WEATHER AND/OR OBSTRUCTIONS TO VISIBILITY.

* - THESE SITES REPORT LIMITED FIELDS

HIZ001>004-281900-
KAUAI-NIIHAU-

CITY           SKY/WX    TMP DP  RH WIND       PRES   REMARKS
LIHUE APT      CLEAR     66  59  78 W8        29.98R
PORT ALLEN*      N/A     64 N/A N/A N8          N/A
POIPU*           N/A     61 N/A N/A N3          N/A
PRINCEVILLE*     N/A     63 N/A N/A MISG        N/A
KOKOLE POINT*  NOT AVBL
MOLOAA DAIRY*  NOT AVBL
WAIMEA HTS*    NOT AVBL
PUU OPAE*      NOT AVBL
PUU LUA*       NOT AVBL
MAKAHA RIDGE*  NOT AVBL
$$

HIZ005>011-281900-
OAHU-

CITY           SKY/WX    TMP DP  RH WIND       PRES   REMARKS
HONOLULU       MOCLDY    72  64  76 NW3       29.96R
KALAELOA       MOCLDY    69  63  81 CALM      29.98R
KANEOHE MCB    CLOUDY    71  65  81 CALM      29.97R
WHEELER FIELD  FAIR      67  62  86 NW3       29.98R
BELLOWS*       NOT AVBL
KAHUKU*        NOT AVBL
WHEELER*       NOT AVBL
WAIANAE HARBOR NOT AVBL
DILLINGHAM*      N/A     64  63  94 MISG        N/A
KAHUKU TRN*      N/A     64  61  88 S2          N/A
KAWAILOA*        N/A     64  61  88 E5          N/A
KII*             N/A     68  64  88 CALM        N/A
MAKUA RANGE*     N/A     70  64  83 E3G9        N/A
OAHU FOREST NW NOT AVBL
SCHOFIELD BRK*   N/A     57  55  94 MISG        N/A
SCHOFIELD S*   NOT AVBL
WAIANAE VLY*   NOT AVBL
KUAOKALA*      NOT AVBL
HONOULIUULI*   NOT AVBL
MOKUOLOE IS*   NOT AVBL
PALEHUA*       NOT AVBL
WAIAWA PHB*    NOT AVBL
$$

HIZ012>013-281900-
MOLOKAI-

CITY           SKY/WX    TMP DP  RH WIND       PRES   REMARKS
MOLOKAI AIRPT  PTSUNNY   69  64  84 CALM      29.98R
KALAUPAPA      NOT AVBL
MAKAPULAPAI*   NOT AVBL
MOLOKAI 1*     NOT AVBL
PUU ALII*      NOT AVBL
$$

HIZ016-281900-
KAHOOLAWE-

CITY           SKY/WX    TMP DP  RH WIND       PRES   REMARKS
KAHOOLAWE*     NOT AVBL
HAKIOAWA*      NOT AVBL
HONOKANAIA*      N/A     72  61  68 NE7G15    29.99R
KANELOA*         N/A     72  64  78 MISG      29.19R
KEALIALALO*    NOT AVBL
LUA MAKIKA*    NOT AVBL
$$

HIZ014>015-281900-
LANAI-

CITY           SKY/WX    TMP DP  RH WIND       PRES   REMARKS
LANAI CITY     FAIR      65  62  90 E6        30.02R
LANAI 1*       NOT AVBL
$$

HIZ017>028-281900-
MAUI-

CITY           SKY/WX    TMP DP  RH WIND       PRES   REMARKS
KAHULUI        MOSUNNY   63  60  90 S3        29.98R
KAPALUA-W MAUI MOSUNNY   68  59  73 E7        29.98R
HANA AIRPORT   CLOUDY    70  63  78 S3        30.01S
HANA*          NOT AVBL
HALEAKALA SUMM   N/A     50  14  23 S3G20       N/A
MAALAEA BAY*   NOT AVBL
HALEAKALA*     NOT AVBL
KAUPO GAP*     NOT AVBL
KULA 1*          N/A    N/A N/A N/A E3          N/A
$$

HIZ023>026-281900-
BIG ISLAND OF HAWAII COAST AND LOWER SLOPES-

CITY           SKY/WX    TMP DP  RH WIND       PRES   REMARKS
KAILUA KONA    CLOUDY    75  61  61 E6        29.95R
HILO           CLOUDY    69  56  62 W8        29.99R
HONOKAA*       NOT AVBL
KAWAIHAE MWT*  NOT AVBL
KAWAIHAE*        N/A     75 N/A N/A E7          N/A
SOUTH POINT*   NOT AVBL
UPOLU AIRPORT* NOT AVBL
KAMUELA*       NOT AVBL
HAKALAU*         N/A    N/A N/A N/A S7          N/A
KALOKO-HONOKO* NOT AVBL
PALI 2*          N/A     59  57  94 N8          N/A
KEALAKOMO*       N/A     73  59  60 N7G14       N/A
KAUPULEHU*     NOT AVBL
KAPAPALA*        N/A     63  54  72 N3G10       N/A
LOWER KAHUKU*  NOT AVBL
PUHE CS*       NOT AVBL
PUHO CS*       NOT AVBL
PTA KEAMUKU*     N/A     59  52  77 CALM        N/A
WAIKOLOA*      NOT AVBL
$$

HIZ027>028-281900-
BIG ISLAND OF HAWAII INTERIOR AND SUMMMITS-

CITY           SKY/WX    TMP DP  RH WIND       PRES   REMARKS
BRADSHAW FIELD CLOUDY    52  30  42 W2        30.26R
MK VISITOR CEN NOT AVBL
MAUNA KEA*       N/A     32   0  25 NW7         N/A  WCI  26
MAUNA LOA*       N/A     39   5  24 MISG        N/A
MAUNA LOA 1*   NOT AVBL
PTA KIPUKA*      N/A     48  41  76 CALM        N/A
PTA RANGE 17*    N/A     48  36  61 E2G12       N/A
PTA WEST*        N/A     52  48  87 SE8         N/A
NENE CABIN*    NOT AVBL
AHUMOA*        NOT AVBL
PTA PORTABLE*  NOT AVBL
PUU MALI*      NOT AVBL
$$

HIC003-281900-
NORTHWEST ISLANDS-

CITY           SKY/WX    TMP DP  RH WIND       PRES   REMARKS
MIDWAY ISLAND  PTCLDY    57  43  58 N16       30.25R
MIDWAY NOS*    NOT AVBL
FRENCH FRIGATE NOT AVBL
$$

PHZ110>124-180-281900-
BUOY REPORTS

STATION/POSITION TIME  TEMP    WIND        PRES    WAVE   SWELL
                       AIR SEA DIR/SP/G            HT/PER HT/DIR
                 (UTC) (F)     (DEG/KT/KT) (MB)    (FT/S) (FT/D)
BUOY 51001       NOT AVBL
BUOY 51101       1800   69 73   10/  8/ 10 1015.0R   8/15   8/310
BUOY 51100       1800   72 74  140/ 10/ 14 1015.4R
BUOY 51003       1700   75 78  130/  2/  4 1013.9R   8/16   8
BUOY 51004       1737   76 78  100/ 16/ 17 1013.9R   7/19   5/290
BARBERS PT BUOY  NOT AVBL
WAIMEA BAY BUOY  1800      76                N/A     7/17   7/310
KAILUA BAY BUOY  1800      76                N/A     4/ 8   2/ 10
LANAI BUOY       1800      77                N/A     3/17   2/290
BARBERS PT 2     1800      77                N/A     4/17   3/300
PAUWELA MAUI     1800      76                N/A     6/17   5/320
HILO             1800      77                N/A     5/18
KANEOHE BAY BUOY 1800      75                N/A     4/ 8   2
HANALEI KAUAI    NOT AVBL
KAHULUI HARBOR   1800   67 76  150/  2/  4 1014.6S
HONOLULU HARBOR  1800   73 76  360/  3/  4 1014.7R
KILO NALU        NOT AVBL
HILO HARBOR      1800   70 76  250/ 11/ 13 1015.0R
MOKUOLOE         1800      75              1014.6R
NAWILIWILI       NOT AVBL
WHOTS BUOY       NOT AVBL
BUOY 51028       NOT AVBL
$$

......................KEY........................................
  SKY/WX - SKY CONDITIONS/PRESENT WEATHER
  TMP    - TEMPERATURE IN FAHRENHEIT
  DWPT   - DEWPOINT IN FAHRENHEIT
  RH     - RELATIVE HUMIDITY IN PERCENT
  WIND   - DIRECTION AND SPEED /MPH FOR ISLANDS...KTS FOR BUOYS/
  PRES   - MEAN SEA LEVEL PRESSURE IN INCHES OF HG
  VSB    - VISIBILITY IN MILES
  HX     - HEAT INDEX
  WCI    - WIND CHILL INDEX
  VRB    - VARIABLE WIND DIRECTION
  N/A    - NOT AVAILABLE


USA.gov is the U.S. government's official web portal to all federal, state and local government web resources and services.